Regional Weather Roundup
Issued by NWS Sterling, VA

Home | Current Version | Previous Version | Text Only | Print | Product List | Glossary On
Versions: 1 2 3 4 5 6 7 8 9 10 11 12 13 14 15 16 17 18 19 20 21 22 23 24 25 26 27 28 29 30 31 32 33 34 35 36 37 38 39 40 41 42 43 44 45 46 47 48 49 50
000
ASUS41 KLWX 262310
RWRLWX

REGIONAL WEATHER ROUNDUP
NATIONAL WEATHER SERVICE BALTIMORE MD/WASHINGTON DC
600 PM EST THU FEB 26 2015

Note: "FAIR" indicates few or no clouds below 12,000 feet
with no significant weather and/or obstructions to visibility.
 TC=TEMPERATURE CELSIUS

 * =Non NWS site. Station does not report precipitation (e.g. rain,
    snow, etc.), thunder, or fog.

DCZ001-MDZ009-015-VAZ040>042-051-053>054-270000-
WASHINGTON METRO

CITY           SKY/WX    TMP DP  RH WIND       PRES   REMARKS
WASHINGTON NAT CLOUDY    37  22  54 N6        30.03R
DULLES         MOCLDY    33  22  63 CALM      30.01R
ANDREWS AFB    CLOUDY    33  24  67 NE5       30.01R
FT BELVOIR     CLOUDY    35  23  60 VRB1      30.03R
QUANTICO       CLOUDY    36  23  59 CALM      30.04R
COLLEGE PARK*  CLOUDY    36  21  55 N3        30.02R
LEESBURG*      CLOUDY    34  27  75 CALM      30.01R
MANASSAS*      CLOUDY    34  27  75 CALM      30.00R
GAITHERSBURG*  CLOUDY    32  19  59 CALM      30.03R

$$

MDZ006>007-011-014-270000-
BALTIMORE METRO

CITY           SKY/WX    TMP DP  RH WIND       PRES   REMARKS
BWI AIRPORT    CLOUDY    33  19  56 NE5       30.01R
MD SCIENCE CTR   N/A     33  18  53 MISG      30.01R
MARTIN STATE   MOCLDY    34  21  60 N6        30.05R
ANNAPOLIS      CLOUDY    31  20  63 NE6       30.04R
FORT MEADE*    CLOUDY    34  21  60 N3        30.03R

$$

MDZ012-015-019>023-270000-
MARYLAND EASTERN SHORE

CITY           SKY/WX    TMP DP  RH WIND       PRES   REMARKS
OCEAN CITY     CLOUDY    29  22  75 N7        30.03R
SALISBURY      CLOUDY    33  19  56 NE6       30.03R
BAY BRIDGE AP*   N/A     32  21  64 NE3       30.03R
CAMBRIDGE*     CLOUDY    34  21  60 N6        30.02R
EASTON*        CLEAR     32  23  69 CALM      30.06R

$$

MDZ017>025-270000-
SOUTHERN MARYLAND

CITY           SKY/WX    TMP DP  RH WIND       PRES   REMARKS
PATUXENT RIVER MOCLDY    31  21  66 N8        30.04R WCI  23
ST INIGOES     CLOUDY    32  21  64 N3        30.03R
LEONARDTOWN*   MOCLDY    32  23  69 CALM      30.04R

$$

MDZ003>005-270000-
NORTH CENTRAL MARYLAND

CITY           SKY/WX    TMP DP  RH WIND       PRES   REMARKS
FREDERICK*     MOCLDY    34  18  51 MISG      30.04R
HAGERSTOWN APT PTCLDY    31  20  63 E5        29.98R
WESTMINSTER*   CLOUDY    30  19  64 E5        29.97R

$$

MDZ501>502-270000-
WESTERN MARYLAND

CITY           SKY/WX    TMP DP  RH WIND       PRES   REMARKS
OAKLAND*       NOT AVBL
CUMBERLAND*    CLOUDY    36  23  60 CALM      30.01R

$$

VAZ025>031-270000-
SHENANDOAH VALLEY

CITY           SKY/WX    TMP DP  RH WIND       PRES   REMARKS
WINCHESTER*    PTCLDY    32  21  64 SE5       29.99R
FRONT ROYAL*   MOCLDY    32  25  74 CALM      29.97R
LURAY*         CLOUDY    34  28  80 CALM      29.98R
NEW MARKET*    CLOUDY    33  24  69 CALM      29.96R
STAUNTON*      CLOUDY    34  23  63 CALM      29.98R
WAYNESBORO*    CLOUDY    33  24  69 SE3       29.95R

$$

WVZ021-048>050-054>055-270000-
EASTERN WEST VIRGINIA PANHANDLE

CITY           SKY/WX    TMP DP  RH WIND       PRES   REMARKS
MARTINSBURG    PTCLDY    33  21  61 SE5       29.99R
PETERSBURG*    NOT AVBL

$$

VAZ036>039-050-270000-
CENTRAL FOOTHILLS

CITY           SKY/WX    TMP DP  RH WIND       PRES   REMARKS
CHARLOTTESVILL CLOUDY    36  24  62 CALM      30.00R
CULPEPER*      MOCLDY    36  27  69 CALM      30.02R
ORANGE*        CLOUDY    34  28  80 CALM      30.03R
GORDONSVILLE*  CLOUDY    34  25  69 CALM      30.00R
WARRENTON*     CLOUDY    35  29  81 CALM      30.01R

$$

VAZ055>057-270000-
NORTH AND CENTRAL PIEDMONT

CITY           SKY/WX    TMP DP  RH WIND       PRES   REMARKS
FREDERICKSBRG* CLOUDY    36  27  68 CALM      30.03R
STAFFORD*      CLOUDY    34  23  66 E3        30.06R

$$

NCZ024-NYZ072-PAZ021-071-VAZ022-071-270000-
OTHER REGIONAL OBSERVATIONS

CITY           SKY/WX    TMP DP  RH WIND       PRES   REMARKS
NEW YORK CITY  CLOUDY    26  12  55 N8        30.03R WCI  18
PHILADELPHIA   CLOUDY    30  17  58 N9        30.04R WCI  22
PITTSBURGH     FLURRIES  17  10  74 NW14      30.04R WCI   3
ROANOKE        CLOUDY    36  28  73 SE6       29.99R
RICHMOND       CLOUDY    36  27  69 CALM      30.03R
RALEIGH        CLOUDY    34  27  75 VRB3      30.04R

$$

ANZ530>537-270000-
MARINE OBSERVATIONS

STATION/POSITION TIME  TEMP    WIND        PRES
                       AIR SEA DIR/SP/G
                 (UTC) (F)     (DEG/KT/KT) (MB)
THOMAS PT LIGHT  2300   31 31   40/  6/  7 1018.2R
BALT KEY BRIDGE  2200   33     360/  4/  5 1015.7R
COVE POINT       2200   30      40/ 13/ 15 1015.5R
LEWISETTA        2200   29 32   20/  1/  3 1015.8R
SOLOMONS ISLAND  2200      33                N/A

$$



USA.gov is the U.S. government's official web portal to all federal, state and local government web resources and services.